Tracking 35237 objects as of 4-Sep-2026
HD Live streaming from Space Station
objects crossing your sky now

YUNYAO-1 19

Track YUNYAO-1 19 now!
10-day predictions


NORAD ID: 58759
Int'l Code: 2024-009B
Launch date: January 11, 2024
Source: People's Republic of China (PRC)
Launch site: Yellow Sea Launch Area, China (YSLA)
Your satellite tracking list
Your tracking list is empty




NASA's NSSDC Master Catalog

Two Line Element Set (TLE):
1 58759U 24009B   26247.10366480  .00006158  00000-0  30254-3 0  9995
2 58759  49.9809 141.2403 0004864 243.0558 116.9898 15.19254855146669
Source of the keplerian elements: AFSPC